Regional Weather Roundup
Issued by NWS

Home | Current Version | Previous Version | Graphics & Text | Print | Product List | Glossary On
Versions: 1 2 3 4 5 6 7 8 9 10 11 12 13 14 15 16 17 18 19 20 21 22 23 24 25 26 27 28 29 30 31 32 33 34 35 36 37 38 39 40 41 42 43 44 45 46 47 48 49 50
000
ASUS43 KIND 221209
RWRIN

WEATHER ROUNDUP FOR INDIANA
NATIONAL WEATHER SERVICE INDIANAPOLIS IN
800 AM EDT WED MAR 22 2017

NOTE: "FAIR" INDICATES FEW OR NO CLOUDS BELOW 12,000 FEET WITH NO
SIGNIFICANT WEATHER AND/OR OBSTRUCTIONS TO VISIBILITY.

* - STATION DOES NOT REPORT WEATHER SUCH AS PRECIPITATION OR FOG.

+ - STATION NOT QUALITY CONTROLLED BY THE NATIONAL WEATHER SERVICE.
    USE DATA WITH CAUTION...ESPECIALLY DEWPOINT AND RELATIVE
    HUMIDITY OBSERVATIONS.

INZ001>003-010>013-019-020-221300-
NORTHWEST INDIANA

CITY           SKY/WX    TMP DP  RH WIND       PRES   REMARKS
GARY /AIRPORT/ MOCLDY    28  16  59 NE17G29   30.53R WCI  16
KNOX *+        CLEAR     21  -8  27 NE9       30.50R WCI  11
LA PORTE +     PTCLDY    21  10  63 NE12      30.51R WCI   9
6HR MIN TEMP:  21; 6HR MAX TEMP:  29;

MICHIGAN CITY+ CLEAR     23  10  58 NE8       30.54R WCI  14
MONTICELLO +   CLEAR     24  11  56 NE10      30.48R WCI  13
6HR MIN TEMP:  24; 6HR MAX TEMP:  32;

RENSSELAER +     N/A     25  14  63 NE12      30.50R WCI  14
VALPARAISO     CLEAR     22  12  65 NE12      30.51R WCI  10
6HR MIN TEMP:  22; 6HR MAX TEMP:  31;


$$

LMZ046-743>745-221300-
SOUTHERN LAKE MICHIGAN

STATION/POSITION TIME  TEMP    WIND        PRES    WAVE
                       AIR SEA DIR/SP/G            HT
                 (UTC) (F)     (DEG/KT/KT) (MB)    (FT)
BURNS HARBOR     1140   27      50/ 24/ 27 1033.2R
MICHIGAN CITY    1140   24      60/ 15/ 17   N/A

$$

INZ004-005-014>016-021>024-221300-
NORTH CENTRAL INDIANA

CITY           SKY/WX    TMP DP  RH WIND       PRES   REMARKS
ELKHART        CLEAR     21   9  58 NE7       30.51R WCI  13
GOSHEN         CLEAR     20   9  62 NE8       30.50R WCI  10
6HR MIN TEMP:  20; 6HR MAX TEMP:  29;

LOGANSPORT +   CLEAR     23  10  58 NE9       30.49R WCI  13
PERU/GRISSOM   CLEAR     23  10  57 NE13      30.45R WCI  11
6HR MIN TEMP:  23; 6HR MAX TEMP:  31;

ROCHESTER +    CLEAR     27  12  54 NE8       30.50R WCI  18
SOUTH BEND     CLEAR     19   9  65 NE9       30.52R WCI   8
6HR MIN TEMP:  18; 6HR MAX TEMP:  27;

WARSAW +       CLEAR     21  10  63 NE8       30.49R WCI  12

$$

INZ006>009-017-018-025>027-221300-
NORTHEAST INDIANA

CITY           SKY/WX    TMP DP  RH WIND       PRES   REMARKS
ANGOLA *+      CLEAR     18   7  62 NE14      30.47R WCI   4
AUBURN +       CLEAR     21  10  63 N8        30.49R WCI  12
FORT WAYNE     CLEAR     22  10  60 NE12      30.48R WCI  10
6HR MIN TEMP:  22; 6HR MAX TEMP:  32;

HUNTINGTON +   CLEAR     22  10  62 NE8       30.48R WCI  12
6HR MIN TEMP:  22; 6HR MAX TEMP:  32;

KENDALLVILLE + CLEAR     20  10  67 NE10      30.48R WCI   8

$$

INZ028-029-035-036-043>045-051>053-221300-
WEST CENTRAL INDIANA

CITY           SKY/WX    TMP DP  RH WIND       PRES   REMARKS
CRAWFORDSVL +  CLEAR     24  16  71 NE14      30.45R WCI  12
6HR MIN TEMP:  24; 6HR MAX TEMP:  32;

GREENCASTLE +  CLEAR     27  18  69 NE12      30.43R WCI  16
LAFAYETTE      CLEAR     24  12  60 NE10      30.48R WCI  14
6HR MIN TEMP:  24; 6HR MAX TEMP:  32;

TERRE HAUTE    CLEAR     30  21  69 NE10      30.44R WCI  21
6HR MIN TEMP:  29; 6HR MAX TEMP:  38;


$$

INZ030>032-037>040-046>048-054>057-064-065-221300-
CENTRAL INDIANA

CITY           SKY/WX    TMP DP  RH WIND       PRES   REMARKS
CP ATTERBURY + CLEAR     30  21  69 NE9       30.42R WCI  22
COLUMBUS       CLEAR     28  25  86 NE9       30.42R WCI  20
FRANKFORT +    PTCLDY    27  13  55 NE14      30.47R WCI  16
6HR MIN TEMP:  27; 6HR MAX TEMP:  35;

GREENWOOD *+   CLEAR     29  18  62 NE14      30.42R WCI  18
INDIANAPOLIS   PTCLDY    27  14  58 NE15      30.43R WCI  15
6HR MIN TEMP:  27; 6HR MAX TEMP:  35;

-EAGLE CREEK   CLEAR     28  13  53 NE9       30.43R WCI  19
6HR MIN TEMP:  28; 6HR MAX TEMP:  35;

KOKOMO +       CLEAR     24  12  60 NE15      30.47  WCI  11
6HR MIN TEMP:  23; 6HR MAX TEMP:  32;

MARION +       CLEAR     23  12  63 NE13      30.47R WCI  11
MT COMFORT *+  CLEAR     25  16  68 NE12      30.43R WCI  14
SHELBYVILLE    CLEAR     30  15  53 NE15      30.42R WCI  19
6HR MIN TEMP:  29; 6HR MAX TEMP:  36;

ZIONSVILLE +   CLEAR     25  14  64 NE12      30.45R WCI  14
6HR MIN TEMP:  25; 6HR MAX TEMP:  32;


$$

INZ033-034-041-042-049-050-058-059-221300-
EAST CENTRAL INDIANA

CITY           SKY/WX    TMP DP  RH WIND       PRES   REMARKS
MUNCIE         CLEAR     25  14  63 NE10      30.45R WCI  15
6HR MIN TEMP:  25; 6HR MAX TEMP:  34;

RICHMOND +     CLEAR     23  14  68 NE10G18   30.42R WCI  12

$$

INZ060-061-067>069-081>083-085>088-221300-
SOUTHWEST INDIANA

CITY           SKY/WX    TMP DP  RH WIND       PRES   REMARKS
EVANSVILLE     CLEAR     36  22  56 NE8       30.40R
6HR MIN TEMP:  36; 6HR MAX TEMP:  47;

HUNTINGBURG *+ CLEAR     34  22  61 NE10      30.39R WCI  26
6HR MIN TEMP:  34; 6HR MAX TEMP:  45;

WASHINGTON +   CLEAR     32  20  59 MISG      30.41R
6HR MIN TEMP:  32; 6HR MAX TEMP:  42;


$$

INZ062-063-066-070>080-084-089>092-221300-
SOUTH CENTRAL AND SOUTHEAST INDIANA

CITY           SKY/WX    TMP DP  RH WIND       PRES   REMARKS
BEDFORD +      CLEAR     32  19  59 N7        30.39R WCI  26
BLOOMINGTON    CLEAR     30  19  63 NE8       30.40R WCI  22
6HR MIN TEMP:  29; 6HR MAX TEMP:  39;

MADISON *+     CLEAR     32  21  64 NE10      30.40R WCI  24
NORTH VERNON + CLEAR     32  19  59 NE12G17   30.39R WCI  23
SEYMOUR +      CLEAR     32  21  64 N9        30.41R WCI  24

$$





USA.gov is the U.S. government's official web portal to all federal, state and local government web resources and services.